SNUSAT-1 (42727 NORAD) Tracking and Keplerian Element Data

This shows tracking and keplerian element data for the satellite.

Feedback or suggestion? Click here.




ElementValue
Catalog42727
NameSNUSAT-1
Epoch Orbit8438
Epoch Day319.97555083
Epoch Year2018
RAAN299.2383
Inclination51.6321
Eccentricity0.0007015
Argument of Perigee64.4962
Mean Anonmoly295.6764
Mean Motion15.79313348
Decay Rate0.00042755
L11 42727U 98067MG 18319.97555083 .00042755 00000-0 23447-3 0 9992
L22 42727 51.6321 299.2383 0007015 64.4962 295.6764 15.79313348 84388

Live tracking and technical data element details for SNUSAT-1 (NORAD 42727). SNUSAT-1 can be tracked NOW for your location showing map with azimuth and elevation plus other details from your city location.

Track the satellite on the map from your city or location and see movement details for azimuth, elevation, latitude, longitude, range, height, and movement on the map or in text.







IsCatalogInMostPopularTable: catalog: 42727, numindb: 142
Update: records affected: 1



GetName: 42727 SNUSAT-1

Hit Count: updated at: Fri, 16 Nov 2018 09:56:06 GMT